Regional Weather Roundup
Issued by NWS

Home | Current Version | Previous Version | Graphics & Text | Print | Product List | Glossary On
Versions: 1 2 3 4 5 6 7 8 9 10 11 12 13 14 15 16 17 18 19 20 21 22 23 24 25 26 27 28 29 30 31 32 33 34 35 36 37 38 39 40 41 42 43 44 45 46 47 48 49 50
000
ASUS45 KCYS 010010
RWRWY

WYOMING REGIONAL WEATHER ROUNDUP
NATIONAL WEATHER SERVICE CHEYENNE WY
600 PM MDT SUN AUG 31 2014

NOTE:  "FAIR" INDICATES FEW OR NO CLOUDS BELOW 12,000 FEET
WITH NO SIGNIFICANT WEATHER AND/OR OBSTRUCTIONS TO VISIBILITY.

WYZ001-010100-
YELLOWSTONE NATIONAL PARK

CITY           SKY/WX    TMP DP  RH WIND       PRES   REMARKS
LK YELLOWSTONE   N/A     48  41  76 VRB3      30.13R
6HR MIN TEMP:  44; 6HR MAX TEMP:  50; 6HR PCP:  0.09;

W YELLOWSTONE  NOT AVBL

$$
WYZ002>013-054>058-071-098>099-010100-
NORTHERN WYOMING

CITY           SKY/WX    TMP DP  RH WIND       PRES   REMARKS
JACKSON        PTSUNNY   75  39  27 S5        30.09R
CODY             N/A    N/A N/A N/A MISG        N/A
GREYBULL       CLOUDY    67  42  40 NW10      29.91R
6HR MIN TEMP:  58; 6HR MAX TEMP:  71;

WORLAND        PTSUNNY   67  43  41 N9        29.90R
6HR MIN TEMP:  58; 6HR MAX TEMP:  72; 6HR PCP: TRACE;

SHERIDAN       PTSUNNY   65  43  44 SW9       29.89R
6HR MIN TEMP:  61; 6HR MAX TEMP:  74;

BUFFALO        CLOUDY    62  42  47 NW16      29.94R
6HR MIN TEMP:  53; 6HR MAX TEMP:  67; 6HR PCP:  0.07;

GILLETTE       CLOUDY    56  51  84 W6        29.89R
6HR MIN TEMP:  55; 6HR MAX TEMP:  66; 6HR PCP:  0.02;

HULETT         FAIR      57  52  82 MISG      29.88
NEWCASTLE      FAIR      64  45  48 NW7       29.87

$$
WYZ014>020-022>026-101>103-010100-
CENTRAL WYOMING

CITY           SKY/WX    TMP DP  RH WIND       PRES   REMARKS
BIG PINEY      SUNNY     61  34  36 N10       30.10R
6HR MIN TEMP:  57; 6HR MAX TEMP:  64;

PINEDALE       MOCLDY    57  36  44 W17       30.11S
DUBOIS         FAIR      52  37  58 N18G29    30.06R
LANDER         PTSUNNY   65  45  48 CALM      29.96R
6HR MIN TEMP:  59; 6HR MAX TEMP:  69; 6HR PCP:  0.01;

RIVERTON       MOSUNNY   63  40  42 E5        29.97R
6HR MIN TEMP:  62; 6HR MAX TEMP:  67;

CASPER         MOSUNNY   63  46  54 N9        29.96R
6HR MIN TEMP:  54; 6HR MAX TEMP:  73; 6HR PCP:  0.05;

DOUGLAS        MOSUNNY   65  46  50 N14       29.94R
6HR MIN TEMP:  50; 6HR MAX TEMP:  73; 6HR PCP:  0.15;


$$
WYZ021-027>030-104>119-010100-
SOUTHERN WYOMING

CITY           SKY/WX    TMP DP  RH WIND       PRES   REMARKS
EVANSTON       SUNNY     63  28  26 W21G29    30.13R
6HR MIN TEMP:  59; 6HR MAX TEMP:  65;

KEMMERER       PTCLDY    61  32  33 W16G25    30.13R
FORT BRIDGER   FAIR      65  31  27 W23G31    30.13S
ROCK SPRINGS   SUNNY     65  33  30 W24G31    30.06R
6HR MIN TEMP:  59; 6HR MAX TEMP:  67;

DIXON          MOCLDY    69  42  38 W6        30.06F
RAWLINS        MOSUNNY   63  29  27 W30G37    30.03R
6HR MIN TEMP:  59; 6HR MAX TEMP:  68; 6HR PCP: TRACE;

SARATOGA       FAIR      61  34  36 W18G28    30.06S
LARAMIE        SUNNY     63  39  41 W20G31    30.03R
6HR MIN TEMP:  47; 6HR MAX TEMP:  64; 6HR PCP: TRACE;

CHEYENNE       MOSUNNY   70  37  29 W16G25    29.96S
6HR MIN TEMP:  52; 6HR MAX TEMP:  71; 6HR PCP: TRACE;

TORRINGTON     PTSUNNY   65  46  50 N20G32    29.85R
6HR MIN TEMP:  65; 6HR MAX TEMP:  78; 6HR PCP: TRACE;

PINE BLUFFS    FAIR      72  37  28 NW18      29.90S

$$


USA.gov is the U.S. government's official web portal to all federal, state and local government web resources and services.